Date,TemperatureHighF,TemperatureAvgF,TemperatureLowF,DewpointHighF,DewpointAvgF,DewpointLowF,HumidityHigh,HumidityAvg,HumidityLow,PressureMaxIn,PressureMinIn,WindSpeedMaxMPH,WindSpeedAvgMPH,GustSpeedMaxMPH,PrecipitationSumIn
2013-1-2,32,27,24,21,18,15,73,67,57,30.23,30.08,6,2,11,0.02
2013-1-3,37,28,20,25,20,13,83,71,56,30.40,30.21,9,2,13,0.01
2013-1-4,40,29,17,24,19,12,83,69,51,30.37,30.20,14,4,17,0.00
2013-1-5,42,35,28,31,25,20,74,67,60,30.21,30.01,18,5,22,0.00
2013-1-6,37,29,21,21,17,14,76,61,48,30.36,30.12,15,4,22,0.00
2013-1-7,48,37,27,25,21,16,65,52,35,30.25,30.03,13,5,22,0.00
2013-1-8,52,43,35,30,28,25,70,56,41,30.16,29.95,14,6,26,0.00
2013-1-9,56,41,29,35,27,23,79,59,29,30.42,30.16,10,2,11,0.00
2013-1-10,46,40,36,43,33,21,93,76,43,30.35,29.73,17,6,19,0.21
2013-1-11,59,53,46,48,45,27,94,76,58,29.77,29.57,18,7,21,0.01
2013-1-12,54,29,21,32,15,8,77,57,33,30.11,29.71,13,5,21,0.00
2013-1-13,25,18,12,9,5,2,65,56,44,30.33,30.06,14,4,17,0.00
2013-1-14,29,20,11,12,6,2,68,55,36,30.49,30.33,8,2,10,0.00
2013-1-15,33,23,16,13,8,5,72,54,33,30.39,30.14,8,2,8,0.00
2013-1-16,45,32,19,27,18,7,68,55,41,30.17,29.99,17,4,17,0.00
2013-1-17,45,36,27,28,23,20,84,62,39,30.48,30.17,7,3,12,0.00
2013-1-18,56,44,31,29,26,22,71,51,33,30.37,29.99,23,8,35,0.00
2013-1-19,60,47,38,31,27,24,66,47,26,30.24,29.94,18,7,21,0.00
2013-1-20,40,25,17,26,7,3,66,47,33,30.38,30.21,14,6,14,0.00
2013-1-21,19,15,12,9,1,-8,73,54,31,30.42,30.34,13,3,15,0.00
2013-1-22,26,18,11,4,0,-4,54,45,33,30.40,30.25,9,4,11,0.00
2013-1-23,45,28,15,19,11,3,65,51,34,30.42,30.16,12,4,16,0.00
2013-1-24,24,17,7,6,0,-6,59,48,37,30.50,30.16,17,8,19,0.00
2013-1-25,47,33,18,19,12,5,58,43,30,30.24,30.12,7,2,9,0.00
2013-1-26,44,34,25,23,20,16,75,57,43,30.30,30.09,11,5,13,0.00
2013-1-27,58,46,35,52,40,21,91,81,53,30.11,29.73,14,7,25,0.11
2013-1-28,73,60,46,58,51,43,91,75,46,29.90,29.66,18,6,24,0.01
2013-1-29,68,47,33,59,42,30,90,84,69,29.70,29.47,18,8,25,0.34
2013-1-30,34,26,18,31,19,9,89,75,63,29.96,29.51,25,8,30,0.11
2013-1-31,20,13,4,10,0,-6,70,56,49,30.45,29.95,20,6,23,0.01
2013-2-1,26,15,1,13,2,-7,68,56,42,30.44,30.11,11,4,12,0.01
2013-2-2,42,32,24,32,22,11,76,66,58,30.22,30.06,9,3,16,0.04
2013-2-3,44,38,30,29,20,14,74,51,32,30.27,29.86,17,5,22,0.01
2013-2-4,41,32,23,28,22,17,80,67,57,30.00,29.74,17,3,22,0.00
2013-2-5,55,37,22,34,24,16,83,63,33,30.11,29.89,16,3,17,0.00
2013-2-6,59,46,31,38,30,23,77,57,36,30.12,29.89,14,5,16,0.00
2013-2-7,50,42,32,42,35,25,89,76,57,30.21,29.87,15,5,19,0.07
2013-2-8,40,32,28,27,24,23,80,74,59,30.34,30.21,15,5,16,0.01
2013-2-9,45,36,28,33,28,23,85,74,53,30.23,29.77,14,8,20,0.01
2013-2-10,54,44,35,45,32,20,91,67,44,29.86,29.43,29,11,38,0.07
2013-2-11,46,38,30,25,22,18,70,53,38,30.15,29.86,17,4,24,0.01
2013-2-12,43,33,23,28,21,17,84,64,43,30.17,29.94,5,1,7,0.00
2013-2-13,55,40,24,27,22,18,76,51,28,29.94,29.79,7,2,15,0.00
2013-2-14,51,42,34,29,24,20,66,50,37,30.16,29.80,14,4,21,0.00
2013-2-15,36,29,19,27,13,5,77,50,29,30.37,30.15,13,4,19,0.00
2013-2-16,36,28,16,20,15,9,76,59,43,30.32,30.05,10,2,14,0.00
2013-2-17,56,42,28,30,24,18,69,50,34,30.06,29.67,11,6,14,0.00
2013-2-18,56,42,26,43,27,12,77,56,39,30.05,29.54,23,9,43,0.00
2013-2-19,32,24,17,14,5,-2,70,45,25,30.34,30.03,24,5,24,0.00
2013-2-20,24,18,11,9,3,-3,60,52,43,30.39,30.18,13,6,17,0.00
2013-2-21,24,22,19,20,15,8,86,76,58,30.20,29.76,21,10,32,0.00
2013-2-22,29,23,15,19,15,7,86,73,60,30.06,29.77,9,2,10,0.11
2013-2-23,35,22,8,17,12,3,80,64,47,30.05,29.93,8,1,12,0.02
2013-2-24,43,32,17,22,19,12,82,60,39,30.04,29.93,11,4,14,0.00
2013-2-25,37,33,28,30,24,20,85,69,60,29.99,29.75,19,9,25,0.01
2013-2-26,32,31,30,30,29,27,92,91,86,29.85,29.60,24,9,31,0.08
2013-2-27,33,30,27,28,25,22,91,82,66,30.03,29.81,17,6,27,0.13
2013-2-28,34,30,27,24,22,20,78,73,61,30.20,30.02,21,5,22,0.01
2013-3-1,33,28,25,23,20,18,77,71,58,30.32,30.15,12,4,16,0.02
2013-3-2,34,27,22,18,15,12,74,60,47,30.34,30.16,9,2,12,0.01
2013-3-3,40,32,24,24,20,16,73,61,49,30.17,29.77,19,6,19,0.00
2013-3-4,47,38,33,30,26,23,85,62,47,29.97,29.69,13,6,15,0.02
2013-3-5,34,31,27,31,20,15,88,62,49,30.32,29.93,24,9,31,0.02
2013-3-6,36,29,21,20,17,12,70,60,49,30.43,30.28,14,3,22,0.01
2013-3-7,42,33,23,26,21,16,76,62,47,30.31,30.14,12,6,15,0.00
2013-3-8,48,41,33,35,30,24,74,64,53,30.22,29.99,15,7,18,0.05
2013-3-9,50,45,41,48,41,34,93,86,74,30.00,29.61,10,5,15,0.17
2013-3-10,51,39,28,49,36,24,94,91,81,29.88,29.57,26,6,26,0.10
2013-3-11,33,28,25,24,21,19,84,73,59,30.00,29.83,15,4,19,0.01
2013-3-12,44,33,26,28,21,17,75,62,43,30.32,29.99,17,4,23,0.00
2013-3-13,43,33,22,22,18,16,76,56,38,30.47,30.30,7,2,9,0.00
2013-3-14,70,51,33,40,30,21,62,46,28,30.30,30.05,13,3,17,0.00
2013-3-15,83,60,38,45,38,32,81,50,19,30.10,29.66,13,2,17,0.00
2013-3-16,55,40,35,42,31,24,83,69,56,30.09,29.73,23,9,27,0.00
2013-3-17,37,33,29,31,26,22,87,75,64,30.08,29.78,18,10,20,0.14
2013-3-18,51,40,31,38,26,14,90,62,30,30.08,29.74,21,5,28,0.03
2013-3-19,44,36,31,31,19,12,86,52,28,30.24,30.05,10,2,17,0.03
2013-3-20,36,30,21,30,11,3,88,47,27,30.40,30.12,14,4,24,0.03
2013-3-21,30,26,23,20,13,4,75,57,40,30.12,29.92,12,5,15,0.00
2013-3-22,34,32,29,27,22,19,77,68,61,30.03,29.93,9,5,13,0.01
2013-3-23,41,34,31,30,25,19,89,70,46,30.05,29.90,17,8,21,0.05
2013-3-24,32,29,24,28,23,16,89,80,68,30.06,29.84,15,3,31,0.11
2013-3-25,35,29,23,25,20,16,83,71,60,30.32,30.01,21,7,23,0.09
2013-3-26,39,30,20,23,19,15,80,64,49,30.40,30.27,7,2,9,0.01
2013-3-27,48,36,26,31,24,17,75,63,43,30.31,30.19,10,4,16,0.01
2013-3-28,60,48,34,39,33,27,77,58,38,30.25,30.13,9,5,11,0.01
2013-3-29,66,53,37,39,33,28,80,51,25,30.22,30.09,12,5,16,0.00
2013-3-30,62,53,48,52,43,-100,89,72,49,30.10,29.87,11,4,15,0.05
2013-3-31,64,55,45,47,37,22,92,57,27,30.01,29.92,15,4,27,0.02
2013-4-1,47,38,30,31,19,11,77,49,27,30.29,30.01,18,7,25,0.00
2013-4-2,49,38,26,22,17,14,64,43,28,30.35,30.24,9,3,15,0.00
2013-4-3,51,42,31,23,21,17,65,45,31,30.36,30.23,12,5,16,0.00
2013-4-4,62,50,36,28,23,17,52,36,24,30.25,30.05,7,2,10,0.00
2013-4-5,69,55,40,39,34,24,70,45,30,30.18,29.86,13,6,18,0.00
2013-4-6,74,63,56,48,40,35,54,44,28,29.87,29.65,23,8,30,0.00
2013-4-7,75,60,46,52,43,37,84,55,30,29.90,29.67,14,4,17,0.51
2013-4-8,73,63,51,61,56,48,91,79,66,29.77,29.68,14,4,16,0.66
2013-4-9,75,67,55,62,58,51,85,72,59,29.80,29.67,14,7,21,0.18
2013-4-10,53,43,39,49,40,35,90,89,86,29.93,29.72,15,5,26,0.87
2013-4-11,38,36,33,35,29,26,90,75,63,29.79,29.71,8,3,13,0.10
2013-4-12,50,39,33,34,28,25,77,65,51,30.02,29.75,10,4,16,0.00
2013-4-13,58,46,31,39,32,25,80,60,45,30.07,29.72,15,4,17,0.00
2013-4-14,73,61,48,52,45,34,81,56,42,29.74,29.49,24,8,31,0.05
2013-4-15,53,48,43,36,31,27,62,53,43,30.02,29.72,15,4,16,0.05
2013-4-16,47,43,39,34,30,28,70,61,52,30.17,30.01,18,10,22,0.00
2013-4-17,49,46,45,46,42,33,92,84,63,30.09,29.66,17,7,20,0.23
2013-4-18,45,39,35,42,34,26,91,82,66,29.91,29.57,23,7,23,0.20
2013-4-19,51,41,31,33,24,21,78,52,33,30.10,29.75,15,5,20,0.01
2013-4-20,53,44,29,28,23,19,66,45,29,30.26,30.09,13,5,16,0.00
2013-4-21,67,56,44,40,35,28,62,46,33,30.22,30.10,17,7,23,0.00
2013-4-22,66,56,46,48,41,36,87,58,39,30.14,29.93,11,5,16,0.04
2013-4-23,45,36,32,41,31,28,87,82,71,30.16,30.03,18,7,29,0.29
2013-4-24,53,43,28,31,27,22,79,55,35,30.26,30.14,12,4,15,0.11
2013-4-25,67,54,37,38,33,29,74,47,27,30.30,30.14,11,3,16,0.00
2013-4-26,57,53,48,48,44,38,87,72,48,30.23,30.14,15,6,16,0.09
2013-4-27,55,50,47,47,46,43,91,84,73,30.22,30.01,9,4,12,0.33
2013-4-28,73,58,39,54,47,36,92,69,40,30.02,29.80,12,4,15,0.02
2013-4-29,83,70,55,63,56,49,81,62,45,29.83,29.64,17,6,18,0.00
2013-4-30,83,75,68,55,51,47,58,43,29,29.84,29.66,21,9,29,0.00
2013-5-1,74,63,40,57,48,35,81,58,50,30.21,29.83,24,7,29,0.02
2013-5-2,41,37,33,37,33,30,89,86,82,30.40,30.19,21,8,30,0.74
2013-5-3,40,36,33,34,31,29,89,82,74,30.30,29.92,15,6,23,0.10
2013-5-4,53,42,34,46,38,30,91,84,70,30.04,29.83,15,5,16,0.07
2013-5-5,58,50,45,50,46,42,91,85,73,30.13,30.02,11,4,16,0.01
2013-5-6,67,56,50,55,50,47,90,79,62,30.14,30.03,10,3,13,0.01
2013-5-7,76,64,47,57,49,44,91,63,34,30.10,29.98,5,1,9,0.00
2013-5-8,74,64,55,58,53,46,84,67,52,30.03,29.91,11,4,15,0.05
2013-5-9,74,65,58,63,57,52,92,78,60,29.96,29.85,7,3,20,0.85
2013-5-10,67,58,53,54,48,-100,89,75,51,30.07,29.92,14,4,15,0.00
2013-5-11,65,56,45,47,33,-100,83,49,25,30.25,30.03,21,6,30,0.00
2013-5-12,65,54,37,39,29,25,65,40,25,30.29,30.12,8,2,11,0.00
2013-5-13,77,64,47,53,44,37,77,51,33,30.18,29.93,13,4,15,0.00
2013-5-14,91,78,63,54,50,42,67,42,22,29.94,29.78,19,7,31,0.00
2013-5-15,87,76,66,64,57,47,75,53,38,29.93,29.81,9,5,17,0.00
2013-5-16,82,67,62,63,39,-100,86,66,46,29.93,29.81,10,3,13,0.00
2013-5-17,76,67,59,62,54,-100,90,73,56,29.96,29.87,8,2,10,0.00
2013-5-18,84,74,61,67,62,57,86,68,51,29.96,29.76,14,5,16,0.00
2013-5-19,82,72,62,69,62,57,88,73,55,29.88,29.57,19,7,27,0.17
2013-6-19,83,79,74,68,66,64,72,64,57,30.02,29.96,8,4,9,0.00
2013-6-20,88,77,68,71,67,64,87,71,55,30.04,29.95,16,6,18,0.00
2013-6-22,93,88,80,71,67,62,66,51,43,30.02,29.84,19,7,19,0.00
2013-6-23,82,78,73,73,69,64,80,73,66,30.02,29.81,13,6,21,0.00
2013-6-24,75,73,72,69,68,68,86,84,80,29.96,29.92,6,3,8,0.00
2013-8-22,90,84,77,-100,-100,-100,0,0,100,0.00,40.00,6,2,7,0.00
2013-8-23,75,74,74,-100,-100,-100,0,0,100,0.00,40.00,1,1,2,0.00
2013-9-8,98,85,74,74,68,65,76,59,37,29.91,29.91,5,2,9,0.00
2013-9-9,96,84,74,65,62,57,69,49,30,29.91,29.91,11,4,24,0.00
2013-9-10,95,84,72,65,62,60,69,50,33,29.91,29.91,10,4,21,0.00
2013-9-11,95,81,68,69,64,60,76,58,38,29.91,29.91,9,3,17,0.00
2013-9-12,84,75,65,70,61,46,92,64,38,29.91,29.91,8,4,15,0.02
2013-9-13,75,66,55,51,46,43,73,51,33,29.91,29.91,9,4,14,0.01
2013-9-14,79,68,54,51,47,44,69,48,33,29.91,29.91,7,4,13,0.00
2013-9-15,77,68,62,67,57,51,88,68,53,29.91,29.91,11,5,20,0.07
2013-9-16,63,60,58,58,56,54,91,87,79,29.91,29.91,11,6,20,0.09
2013-9-17,74,65,60,66,62,57,93,87,75,29.91,29.91,7,5,13,0.03
2013-9-18,79,68,67,67,66,65,93,91,70,29.91,29.91,7,3,15,0.02
2013-9-19,92,80,66,69,66,62,92,64,42,29.91,29.91,13,6,23,0.02
2013-9-20,69,63,55,64,52,48,92,70,50,29.91,29.91,6,3,16,0.01
2013-9-21,72,61,48,51,45,-100,85,61,40,29.91,29.91,3,0,6,0.01
2013-9-22,77,65,54,53,50,48,82,59,42,29.91,29.91,8,4,14,0.00
2013-9-23,75,66,55,54,51,49,83,61,41,29.91,29.91,11,6,20,0.01
2013-9-24,74,66,61,58,56,53,84,71,58,29.91,29.91,12,3,12,0.01
2013-9-28,73,64,55,64,54,-100,89,74,62,29.91,29.91,10,4,24,0.00
2013-9-29,74,61,47,50,48,43,88,65,38,29.91,29.91,5,2,9,0.00
2013-9-30,78,66,52,59,53,47,88,67,44,29.91,29.91,7,3,16,0.00
2013-10-1,75,69,66,64,63,62,87,80,67,29.91,29.91,2,1,3,0.00
2013-10-2,81,71,64,69,64,61,89,80,59,29.91,29.91,6,2,10,0.00
2013-10-3,70,70,69,66,66,65,88,88,87,29.91,29.91,2,2,5,0.00